Meteopurmerend
purmerend
Purmerend - Baaienwijk



My webcam  My webcam


waarschuwing voor Onweer Meer informatie blitzortung!


Regen radar Meer informatie rain snow radar


Bezoek onze andere website:

CandyAppleRed WebdesignWebdesign Purmerend Candy Apple Red

MeteopurmerendBlog

Template documentation
and downloads



Onweer van: 26-07-2021 13:00 tot: 21:00 waarschuwing voor: Onweer niveau: Geel info button
Enkele onweersbuien, lokaal met hagel en veel neerslag in korte tijd.Kans op blikseminslag, hagel en veel neerslag in korte tijd.Verkeer en buitenactiviteiten kunnen hinder ondervinden.Mijd open water en open gebied, schuil niet onder bomen.Volg weerberichten en waarschuwingen.

15 daagse weersverwachting Nijmegen (NL)

  • Overzicht
  • Per uur
  • 15 dagen
  • Extra
  • Vergelijk
  • Kaarten
  • Dagkaart
  • Meer »
  • Info
  • Statistieken
  • Directe link
    Temp 6h Neerslag Wind  
 05:53     21:35    Daglengte: 15:42 Vandaag
20:00
19°
0.3 mm
3
 05:54     21:33    Daglengte: 15:39 Morgen
02:00
17°
 
3
08:00
17°
 
3
14:00
21°
 
4
20:00
19°
2.5 mm
3
 05:56     21:32    Daglengte: 15:36 Woensdag 28 Jul
02:00
16°
 
3
08:00
16°
 
4
14:00
19°
3.6 mm
6
20:00
18°
10.0 mm
5
 05:57     21:30    Daglengte: 15:33 Donderdag 29 Jul
02:00
15°
7.2 mm
5
08:00
15°
6.9 mm
6
14:00
20°
 
7
Locatie info
Region: Gelderland
Latitude: 51.8413°N
Longitude: 5.8577°E
25 masl
Postcode: 6512
Temp/Neerslag /Baro Onweer/Dauwpunt
    Temp Baro 1h Neerslag Dauwpunt Wind UV Bewolking  
 05:53     21:35    Daglengte: 15:42 Vandaag
17:00
21°
1009.5 hPa
49%
14.5°
4
Windvlaag: 6.6 m/s
42%
18:00
21°
1009.5 hPa 0.3 mm
82%
14.0°
4
Windvlaag: 5.6 m/s
55%
19:00
20°
1009.4 hPa
41%
14.4°
4
Windvlaag: 5.5 m/s
57%
20:00
19°
1009.4 hPa
73%
14.9°
3
Windvlaag: 4.9 m/s
49%
21:00
19°
1009.8 hPa
78%
15.9°
3
Windvlaag: 4.9 m/s
61%
22:00
18°
1010.5 hPa
82%
16.4°
3
Windvlaag: 4.9 m/s
62%
23:00
17°
1010.7 hPa
68%
16.3°
3
Windvlaag: 4.7 m/s
70%
 05:54     21:33    Daglengte: 15:39 Morgen
00:00
17°
1010.8 hPa
19%
16.4°
3
Windvlaag: 5.2 m/s
59%
01:00
17°
1010.8 hPa
54%
16.5°
3
Windvlaag: 5.5 m/s
63%
02:00
17°
1011.0 hPa
14%
16.2°
3
Windvlaag: 5.1 m/s
56%
03:00
16°
1011.0 hPa
14%
15.5°
3
Windvlaag: 4.9 m/s
50%
04:00
16°
1011.0 hPa
14%
15.4°
2
Windvlaag: 5.2 m/s
57%
05:00
16°
1010.9 hPa
14%
15.6°
3
Windvlaag: 5.2 m/s
57%
06:00
16°
1010.7 hPa
14%
15.7°
3
Windvlaag: 5.7 m/s
61%
07:00
16°
1011.1 hPa
14%
15.8°
3
Windvlaag: 4.8 m/s
71%
08:00
17°
1011.2 hPa
14%
15.6°
3
Windvlaag: 5.7 m/s
81%
09:00
17°
1011.2 hPa
14%
15.3°
3
Windvlaag: 6.1 m/s
54%
10:00
18°
1011.2 hPa
14%
15.4°
4
Windvlaag: 6.6 m/s
67%
11:00
20°
1011.2 hPa
14%
15.4°
4
Windvlaag: 7.1 m/s
72%
12:00
21°
1011.0 hPa
14%
15.6°
4
Windvlaag: 6.9 m/s
73%
13:00
21°
1010.6 hPa
14%
17.6°
4
Windvlaag: 6.9 m/s
63%
14:00
21°
1010.3 hPa
23%
18.8°
4
Windvlaag: 6.4 m/s
68%
15:00
21°
1010.0 hPa
82%
18.9°
4
Windvlaag: 5.9 m/s
59%
16:00
22°
1010.1 hPa 1.4 mm
82%
16.7°
4
Windvlaag: 6.5 m/s
77% warningclass
17:00
20°
1009.9 hPa 1.1 mm
82%
15.4°
3
Windvlaag: 6.9 m/s
77% warningclass
18:00
20°
1009.8 hPa
82%
16.3°
4
Windvlaag: 6.3 m/s
55%
19:00
19°
1009.7 hPa
82%
16.9°
4
Windvlaag: 5.8 m/s
69%
20:00
19°
1009.7 hPa
82%
16.7°
3
Windvlaag: 5.9 m/s
83%
21:00
18°
1009.6 hPa
81%
16.2°
3
Windvlaag: 6.4 m/s
64%
22:00
18°
1009.8 hPa
82%
15.7°
3
Windvlaag: 5.7 m/s
61%
23:00
17°
1009.9 hPa
80%
15.8°
3
Windvlaag: 5.8 m/s
66%
 05:56     21:32    Daglengte: 15:36 Woensdag 28 Jul
00:00
17°
1009.8 hPa
18%
15.7°
4
Windvlaag: 6.4 m/s
65%
01:00
17°
1009.7 hPa
15%
15.5°
3
Windvlaag: 7.9 m/s
63%
02:00
16°
1009.4 hPa
61%
15.4°
3
Windvlaag: 7.7 m/s
63%
03:00
16°
1009.1 hPa
72%
14.8°
3
Windvlaag: 7.7 m/s
56%
04:00
16°
1008.8 hPa
76%
14.5°
3
Windvlaag: 8.3 m/s
68%
05:00
16°
1008.7 hPa
27%
14.7°
3
Windvlaag: 8.2 m/s
26%
06:00
15°
1008.8 hPa
68%
14.4°
4
Windvlaag: 8.4 m/s
63%
07:00
16°
1008.8 hPa
76%
14.5°
4
Windvlaag: 8.6 m/s
66%
08:00
16°
1008.9 hPa
24%
14.9°
4
Windvlaag: 9.6 m/s
21%
09:00
16°
1008.9 hPa
14%
14.3°
5
Windvlaag: 9.6 m/s
32%
10:00
17°
1008.9 hPa
80%
14.4°
5
Windvlaag: 9.6 m/s
48%
11:00
18°
1008.4 hPa 1.3 mm
100%
11.9°
6
Windvlaag: 10.3 m/s
69%
12:00
19°
1008.3 hPa
100%
12.1°
6
Windvlaag: 10.2 m/s
24%
13:00
19°
1008.3 hPa 1.0 mm
100%
12.7°
6
Windvlaag: 10.3 m/s
68%
14:00
19°
1008.4 hPa 1.3 mm
100%
11.8°
6
Windvlaag: 10.3 m/s
55%
15:00
20°
1008.5 hPa 2.1 mm
100%
13.1°
7
Windvlaag: 9.4 m/s
61%
16:00
19°
1008.8 hPa 1.2 mm
100%
13.0°
6
Windvlaag: 9 m/s
61%
17:00
19°
1008.9 hPa 1.8 mm
100%
16.0°
5
Windvlaag: 8.1 m/s
57% warningclass
18:00
19°
1008.8 hPa 1.7 mm
100%
13.6°
5
Windvlaag: 8.2 m/s
46% warningclass
19:00
18°
1008.6 hPa 1.7 mm
100%
13.9°
5
Windvlaag: 8 m/s
30%
20:00
18°
1008.7 hPa 1.5 mm
100%
12.6°
5
Windvlaag: 8.3 m/s
11%
21:00
17°
1008.7 hPa 2.2 mm
92%
13.9°
4
Windvlaag: 8 m/s
33%
22:00
16°
1008.6 hPa
37%
13.8°
4
Windvlaag: 7.9 m/s
9%
23:00
16°
1008.4 hPa
21%
13.3°
4
Windvlaag: 8.7 m/s
30%
 05:57     21:30    Daglengte: 15:33 Donderdag 29 Jul
00:00
16°
1008.3 hPa
21%
13.4°
5
Windvlaag: 8.7 m/s
62%
01:00
16°
1008.2 hPa 2.8 mm
21%
13.5°
5
Windvlaag: 8.8 m/s
81%
02:00
15°
1007.8 hPa 2.3 mm
21%
13.0°
5
Windvlaag: 9 m/s
67%
03:00
15°
1007.4 hPa
21%
12.0°
5
Windvlaag: 10.1 m/s
84%
04:00
14°
1007.2 hPa
28%
12.0°
5
Windvlaag: 11 m/s
64%
05:00
14°
1007.2 hPa
30%
11.8°
6
Windvlaag: 11.6 m/s
77%
06:00
14°
1007.3 hPa 2.4 mm
33%
11.9°
6
Windvlaag: 11.5 m/s
65%
07:00
14°
1007.5 hPa 2.2 mm
22%
11.6°
6
Windvlaag: 10.6 m/s
59%
08:00
15°
1007.7 hPa 2.3 mm
22%
11.7°
6
Windvlaag: 10.8 m/s
36%
09:00
16°
1009.3 hPa
30%
11.8°
6
Windvlaag: 13.4 m/s
15%
10:00
17°
1009.4 hPa
30%
11.7°
6
Windvlaag: 13.1 m/s
15%
11:00
18°
1009.7 hPa
27%
11.1°
7
Windvlaag: 13.4 m/s
49%
12:00
19°
1009.8 hPa
22%
10.4°
7
Windvlaag: 13 m/s
19%
13:00
19°
1009.8 hPa
21%
9.9°
7
Windvlaag: 13.4 m/s
20%
14:00
20°
1009.7 hPa
21%
10.8°
7
Windvlaag: 13.3 m/s
20%
Temp/Neerslag /Baro Onweer/Dauwpunt
    Temp Baro Neerslag Dauwpunt Wind Bewolking  
 05:53     21:35    Daglengte: 15:42 Vandaag
17:00
21°
1009.5 hPa   14.5°
4
42%
20:00
19°
1009.4 hPa 0.3 mm 14.9°
3
49%
23:00
17°
1010.7 hPa   16.3°
3
70%
 05:54     21:33    Daglengte: 15:39 Morgen
02:00
17°
1011.0 hPa   16.2°
3
56%
05:00
16°
1010.9 hPa   15.6°
3
57%
08:00
17°
1011.2 hPa   15.6°
3
81%
11:00
20°
1011.2 hPa   15.4°
4
72%
14:00
21°
1010.3 hPa   18.8°
4
68%
17:00
20°
1009.9 hPa 2.5 mm 15.4°
3
77% warningclass
20:00
19°
1009.7 hPa   16.7°
3
83%
23:00
17°
1009.9 hPa   15.8°
3
66%
 05:56     21:32    Daglengte: 15:36 Woensdag 28 Jul
02:00
16°
1009.4 hPa   15.4°
3
63%
05:00
16°
1008.7 hPa   14.7°
3
26%
08:00
16°
1008.9 hPa   14.9°
4
21%
11:00
18°
1008.4 hPa 1.3 mm 11.9°
6
69%
14:00
19°
1008.4 hPa 2.3 mm 11.8°
6
55%
17:00
19°
1008.9 hPa 5.1 mm 16.0°
5
57% warningclass
20:00
18°
1008.7 hPa 4.8 mm 12.6°
5
11%
23:00
16°
1008.4 hPa 2.2 mm 13.3°
4
30%
 05:57     21:30    Daglengte: 15:33 Donderdag 29 Jul
02:00
15°
1007.8 hPa 5.0 mm 13.0°
5
67%
05:00
14°
1007.2 hPa   11.8°
6
77%
08:00
15°
1007.7 hPa 6.9 mm 11.7°
6
36%
11:00
18°
1009.7 hPa   11.1°
7
49%
14:00
20°
1009.7 hPa   10.8°
7
20%
17:00
20°
1010.3 hPa 14.3 mm 12.1°
7
0%
20:00
18°
1010.4 hPa 14.7 mm 12.4°
6
0%
23:00
15°
1010.9 hPa 14.7 mm 9.7°
5
0%
 05:59     21:28    Daglengte: 15:29 Vrijdag 30 Jul
02:00
13°
1011.0 hPa 14.7 mm 9.6°
5
0%
05:00
12°
1010.8 hPa 14.7 mm 9.8°
4
0%
08:00
14°
1011.2 hPa 14.7 mm 10.9°
5
0%
11:00
19°
1011.0 hPa 14.7 mm 12.8°
5
1%
14:00
21°
1010.1 hPa 14.7 mm 11.5°
5
1%
17:00
22°
1009.3 hPa 14.7 mm 12.4°
3
1%
20:00
20°
1008.0 hPa 14.7 mm 14.3°
1
1%
23:00
17°
1007.6 hPa 15.2 mm 14.6°
1
1%
 06:00     21:27    Daglengte: 15:27 Zaterdag 31 Jul
02:00
15°
1007.1 hPa 16.6 mm 14.7°
2
1%
05:00
14°
1006.4 hPa 16.7 mm 13.2°
4
0%
08:00
15°
1006.2 hPa 16.7 mm 13.1°
4
0%
11:00
18°
1005.0 hPa 16.9 mm 12.6°
8
0%
14:00
17°
1004.1 hPa 19.9 mm 12.9°
9
1%
17:00
17°
1002.7 hPa 21.6 mm 14.4°
10
1%
20:00
16°
1005.4 hPa 22.4 mm 13.7°
6
1%
23:00
13°
1007.4 hPa 22.4 mm 11.7°
4
0%
 06:02     21:25    Daglengte: 15:23 Zondag 01 Aug
02:00
12°
1007.4 hPa 22.4 mm 10.8°
3
0%
05:00
12°
1006.9 hPa 22.4 mm 11.5°
2
1%
08:00
13°
1006.8 hPa 23.4 mm 12.7°
3
1%
11:00
15°
1006.8 hPa 24.1 mm 13.4°
3
1%
14:00
15°
1007.3 hPa 24.9 mm 13.5°
3
1%
17:00
17°
1008.2 hPa 28.1 mm 12.4°
5
1%
20:00
15°
1009.4 hPa 30.4 mm 12.4°
4
1%
23:00
12°
1011.6 hPa 30.5 mm 10.6°
3
1%
 06:03     21:23    Daglengte: 15:20 Maandag 02 Aug
02:00
10°
1012.9 hPa 30.5 mm 9.1°
3
0%
05:00
10°
Voelt als: 8.1°
1013.3 hPa 30.5 mm 8.7°
3
0%
08:00
12°
1014.4 hPa 30.5 mm 10.5°
3
0%
11:00
15°
1015.5 hPa 31.1 mm 10.8°
5
1%
14:00
19°
1015.4 hPa 62.5 mm 9.8°
4
1%
20:00
17°
1015.3 hPa 62.9 mm 11.3°
1
1%
 06:05     21:22    Daglengte: 15:17 Dinsdag 03 Aug
02:00
12°
1015.6 hPa 62.9 mm 7.7°
2
1%
08:00
14°
1015.6 hPa 62.9 mm 10.6°
3
1%
14:00
21°
1015.1 hPa 62.9 mm 10.6°
6
0%
20:00
19°
1014.1 hPa 63.0 mm 12.0°
4
1%
 06:06     21:20    Daglengte: 15:14 Woensdag 04 Aug
02:00
15°
1013.3 hPa 63.1 mm 10.8°
5
1%
08:00
16°
1011.5 hPa 63.1 mm 9.5°
5
1%
14:00
22°
1009.6 hPa 63.3 mm 13.5°
8
1%
20:00
18°
1008.8 hPa 66.8 mm 14.7°
5
1%
 06:08     21:18    Daglengte: 15:10 Donderdag 05 Aug
02:00
14°
1009.3 hPa 68.3 mm 11.9°
5
0%
08:00
14°
1008.4 hPa 68.3 mm 13.0°
5
1%
14:00
20°
1010.2 hPa 1.2 mm 13.3°
3
78%
20:00
18°
1009.0 hPa 2.3 mm 13.8°
2
83%
 06:09     21:16    Daglengte: 15:07 Vrijdag 06 Aug
02:00
14°
1008.5 hPa 0.8 mm 12.1°
2
69%
08:00
14°
1007.8 hPa 0.6 mm 12.5°
3
67%
14:00
20°
1007.9 hPa 1.6 mm 12.9°
3
65%
20:00
18°
1007.3 hPa 2.2 mm 13.4°
2
68%
 06:11     21:14    Daglengte: 15:03 Zaterdag 07 Aug
02:00
13°
1007.6 hPa 0.9 mm 11.6°
3
57%
08:00
14°
1007.5 hPa 0.6 mm 12.1°
3
62%
14:00
19°
1007.9 hPa 2.0 mm 12.9°
5
72%
20:00
17°
1008.5 hPa 2.8 mm 13.0°
4
68%
 06:12     21:13    Daglengte: 15:01 Zondag 08 Aug
02:00
13°
1009.7 hPa 0.3 mm 11.4°
3
61%
08:00
14°
1009.7 hPa 1.1 mm 12.0°
4
65%
14:00
19°
1010.6 hPa 2.2 mm 12.8°
5
71%
20:00
17°
1011.4 hPa 1.6 mm 12.8°
3
70%
 06:14     21:11    Daglengte: 14:57 Maandag 09 Aug
02:00
13°
1012.5 hPa 0.5 mm 11.3°
3
64%
08:00
14°
1012.9 hPa 0.4 mm 11.8°
4
64%
14:00
19°
1013.8 hPa 1.4 mm 12.4°
5
61%
20:00
17°
1014.3 hPa 0.2 mm 12.5°
3
70%
 06:16     21:09    Daglengte: 14:53 Dinsdag 10 Aug
02:00
13°
1015.3 hPa 0.7 mm 11.0°
2
56%
08:00
14°
1015.3 hPa 0.6 mm 11.9°
3
52%
14:00
20°
1016.0 hPa 1.1 mm 12.9°
4
55%
  CAPE Lifted Index Hail Supercell Tornado SRH 3km CL BTM PRES CL TOP PRES Swiss DWD icon SMHI TS
 05:53     21:35    Daglengte: 15:42 Vandaag
17:00 701 J/kg -2.5 K 0 % 0 % 0 % 0 m²/s² 0 0 -0.76 3
18:00 763 J/kg -2.7 K 0 % 0 % 0 % 0 m²/s² 0 0 -1.41 80
19:00 726 J/kg -2.7 K 0 % 0 % 0 % 0 m²/s² 0 0 -1.71 3
20:00 701 J/kg -2.6 K 0 % 0 % 0 % 0 m²/s² 0 0 -1.55 3
21:00 751 J/kg -3.1 K 0 % 0 % 0 % 0 m²/s² 0 0 -2.35 3
22:00 539 J/kg -2.1 K 0 % 0 % 0 % 0 m²/s² 0 0 -1.53 3
23:00 167 J/kg -1.4 K 0 % 0 % 0 % 0 m²/s² 0 0 -0.83 3
 05:54     21:33    Daglengte: 15:39 Morgen
00:00 124 J/kg -1.7 K 0 % 0 % 0 % 0 m²/s² 0 0 -0.47 3
01:00 114 J/kg -1.0 K 0 % 0 % 0 % 0 m²/s² 0 0 0.14 3
02:00 0 J/kg 0.1 K 0 % 0 % 0 % 0 m²/s² 0 0 1.09 3
03:00 0 J/kg 0.8 K 0 % 0 % 0 % 0 m²/s² 0 0 1.82 3
04:00 0 J/kg 1.5 K 0 % 0 % 0 % 0 m²/s² 0 0 3.63 3
05:00 0 J/kg -0.2 K 0 % 0 % 0 % 0 m²/s² 0 0 1.87 3
06:00 2 J/kg -1.1 K 0 % 0 % 0 % 0 m²/s² 0 0 1.3 3
07:00 16 J/kg -1.6 K 0 % 0 % 0 % 0 m²/s² 0 0 0.95 3
08:00 110 J/kg -1.1 K 0 % 0 % 0 % 0 m²/s² 0 0 1.45 3
09:00 232 J/kg -1.7 K 0 % 0 % 0 % 0 m²/s² 0 0 1.48 3
10:00 240 J/kg -1.7 K 0 % 0 % 0 % 0 m²/s² 0 0 1.75 3
11:00 349 J/kg -1.8 K 0 % 0 % 0 % 0 m²/s² 0 0 1.2 3
12:00 548 J/kg -2.4 K 0 % 0 % 0 % 0 m²/s² 0 0 -0.21 3
13:00 837 J/kg -3.5 K 0 % 0 % 0 % 0 m²/s² 0 0 -1.64 3
14:00 888 J/kg -3.5 K 0 % 0 % 0 % 0 m²/s² 0 0 -2.36 3
15:00 914 J/kg -3.4 K 0 % 0 % 0 % 0 m²/s² 0 0 -2.47 3
16:00 1168 J/kg -3.8 K 0 % 0 % 0 % 0 m²/s² 0 0 -3.29 80
17:00 981 J/kg -3.3 K 0 % 0 % 0 % 0 m²/s² 0 0 -2.88 80
18:00 18 J/kg 0.7 K 0 % 0 % 0 % 0 m²/s² 0 0 1.36 61
19:00 247 J/kg -0.6 K 0 % 0 % 0 % 0 m²/s² 0 0 -0.21 80
20:00 169 J/kg 0.0 K 0 % 0 % 0 % 0 m²/s² 0 0 0.21 80
21:00 10 J/kg 0.3 K 0 % 0 % 0 % 0 m²/s² 0 0 0.48 3
22:00 42 J/kg 0.3 K 0 % 0 % 0 % 0 m²/s² 0 0 0.42 3
23:00 82 J/kg -0.4 K 0 % 0 % 0 % 0 m²/s² 0 0 -0.37 61
 05:56     21:32    Daglengte: 15:36 Woensdag 28 Jul
00:00 14 J/kg 0.2 K 0 % 0 % 0 % 0 m²/s² 0 0 0.68 3
01:00 63 J/kg 0.1 K 0 % 0 % 0 % 0 m²/s² 0 0 0.79 3
02:00 77 J/kg -0.9 K 0 % 0 % 0 % 0 m²/s² 0 0 -0.21 3
03:00 37 J/kg -0.2 K 0 % 0 % 0 % 0 m²/s² 0 0 0.82 3
04:00 21 J/kg 0.0 K 0 % 0 % 0 % 0 m²/s² 0 0 1.62 3
05:00 0 J/kg 0.5 K 0 % 0 % 0 % 0 m²/s² 0 0 2.36 3
06:00 0 J/kg 1.3 K 0 % 0 % 0 % 0 m²/s² 0 0 3.37 3
07:00 0 J/kg 1.0 K 0 % 0 % 0 % 0 m²/s² 0 0 2.98 3
08:00 3 J/kg 1.1 K 0 % 0 % 0 % 0 m²/s² 0 0 3.17 2
09:00 2 J/kg 1.9 K 0 % 0 % 0 % 0 m²/s² 0 0 4.39 3
10:00 0 J/kg 2.7 K 0 % 0 % 0 % 0 m²/s² 0 0 5.04 3
11:00 3 J/kg 2.9 K 0 % 0 % 0 % 0 m²/s² 0 0 6.2 3
12:00 42 J/kg 1.7 K 0 % 0 % 0 % 0 m²/s² 0 0 5.06 2
13:00 80 J/kg 1.0 K 0 % 0 % 0 % 0 m²/s² 0 0 4.36 80
14:00 123 J/kg 0.5 K 0 % 0 % 0 % 0 m²/s² 0 0 2.75 3
15:00 209 J/kg -0.2 K 0 % 0 % 0 % 0 m²/s² 0 0 2.14 2
16:00 299 J/kg -0.6 K 0 % 0 % 0 % 0 m²/s² 0 0 1.95 80
17:00 245 J/kg -0.5 K 0 % 0 % 0 % 0 m²/s² 0 0 0.73 95
18:00 554 J/kg -2.0 K 0 % 0 % 0 % 0 m²/s² 0 0 0.37 95
19:00 507 J/kg -2.0 K 0 % 0 % 0 % 0 m²/s² 0 0 0.1 80
20:00 313 J/kg -0.5 K 0 % 0 % 0 % 0 m²/s² 0 0 1.36 80
21:00 213 J/kg 0.9 K 0 % 0 % 0 % 0 m²/s² 0 0 3 1
22:00 164 J/kg 1.9 K 0 % 0 % 0 % 0 m²/s² 0 0 5.38 1
23:00 189 J/kg 2.3 K 0 % 0 % 0 % 0 m²/s² 0 0 2.81 2
 05:57     21:30    Daglengte: 15:33 Donderdag 29 Jul
00:00 144 J/kg 3.0 K 0 % 0 % 0 % 0 m²/s² 0 0 3.21 1
01:00 103 J/kg 4.4 K 0 % 0 % 0 % 0 m²/s² 0 0 4.94 2
02:00 14 J/kg 6.5 K 0 % 0 % 0 % 0 m²/s² 0 0 7.43 2
03:00 1 J/kg 7.5 K 0 % 0 % 0 % 0 m²/s² 0 0 9.78 2
04:00 2 J/kg 7.0 K 0 % 0 % 0 % 0 m²/s² 0 0 10.96 3
05:00 60 J/kg 6.7 K 0 % 0 % 0 % 0 m²/s² 0 0 11.2 2
06:00 70 J/kg 7.4 K 0 % 0 % 0 % 0 m²/s² 0 0 12.5 2
07:00 76 J/kg 8.1 K 0 % 0 % 0 % 0 m²/s² 0 0 13.05 3
08:00 127 J/kg 8.0 K 0 % 0 % 0 % 0 m²/s² 0 0 12.14 2
09:00 174 J/kg 7.8 K 0 % 0 % 0 % 0 m²/s² 0 0 12.12 2
10:00 213 J/kg 7.2 K 0 % 0 % 0 % 0 m²/s² 0 0 11.85 2
11:00 191 J/kg 6.6 K 0 % 0 % 0 % 0 m²/s² 0 0 11.25 3
12:00 157 J/kg 5.9 K 0 % 0 % 0 % 0 m²/s² 0 0 9.5 2
13:00 146 J/kg 5.1 K 0 % 0 % 0 % 0 m²/s² 0 0 6.9 2
14:00 139 J/kg 3.7 K 0 % 0 % 0 % 0 m²/s² 0 0 6.46 2
Temp Baro Wind Neerslag
  EWN Forecast EWN WRFDA DWD ICON FMI HIRLAM MET Norway GFS
 05:53     21:35    Daglengte: 15:42 Vandaag
17:00 21.4° 1009.5 hPa 4.1 m/s 0.0 mm 22.9° 1009.0 hPa 4.0 m/s 0.7 mm 21.4° 1009.7 hPa 3.9 m/s -1.2 mm 22.2° 1008.9 hPa 4.7 m/s 0.0 mm 21.3° 1009.6 hPa 4.8 m/s
20:00 19.4° 1009.4 hPa 3.5 m/s 0.3 mm 22.0° 1008.4 hPa 3.5 m/s 2.0 mm 19.0° 1009.5 hPa 3.9 m/s 0.2 mm 20.7° 1009.0 hPa 3.0 m/s 0.0 mm 19.7° 1009.3 hPa 4.2 m/s
23:00 17.3° 1010.7 hPa 3.2 m/s 0.0 mm 16.3° 1010.1 hPa 2.5 m/s 3.3 mm 17.3° 1010.8 hPa 3.3 m/s 0.2 mm 18.5° 1009.8 hPa 2.6 m/s 0.0 mm 16.4° 1009.9 hPa 4.1 m/s
 05:54     21:33    Daglengte: 15:39 Morgen
02:00 16.6° 1011.0 hPa 3.0 m/s 0.0 mm 15.3° 1009.7 hPa 3.1 m/s 3.8 mm 16.7° 1011.4 hPa 3.0 m/s 0.0 mm 16.7° 1009.8 hPa 2.7 m/s 0.0 mm 14.5° 1011.1 hPa 2.9 m/s
05:00 15.8° 1010.9 hPa 2.7 m/s 0.0 mm 13.1° 1009.9 hPa 2.5 m/s 3.8 mm 16.3° 1011.4 hPa 2.6 m/s 0.0 mm 15.5° 1009.9 hPa 2.5 m/s 0.0 mm 13.7° 1010.8 hPa 2.8 m/s
08:00 16.7° 1011.2 hPa 3.3 m/s 0.0 mm 16.6° 1010.0 hPa 2.9 m/s 3.8 mm 16.9° 1011.9 hPa 3.5 m/s 0.0 mm 16.6° 1010.1 hPa 3.1 m/s 0.0 mm 15.9° 1011.0 hPa 3.5 m/s
11:00 19.6° 1011.2 hPa 3.9 m/s 0.0 mm 21.0° 1009.9 hPa 3.8 m/s 3.8 mm 19.6° 1011.6 hPa 3.9 m/s 0.0 mm 20.0° 1010.4 hPa 3.8 m/s 0.0 mm 19.4° 1010.8 hPa 4.4 m/s
14:00 20.8° 1010.3 hPa 3.9 m/s 0.0 mm 20.3° 1010.2 hPa 2.7 m/s 4.9 mm 22.7° 1010.8 hPa 4.3 m/s 0.0 mm 20.7° 1009.5 hPa 4.1 m/s 0.0 mm 21.2° 1010.5 hPa 4.6 m/s
17:00 20.0° 1009.9 hPa 3.4 m/s 2.5 mm 21.9° 1009.2 hPa 5.5 m/s 8.8 mm 19.4° 1010.7 hPa 3.1 m/s 1.1 mm 23.0° 1008.1 hPa 3.0 m/s 0.0 mm 19.9° 1010.1 hPa 3.0 m/s
20:00 18.6° 1009.7 hPa 3.1 m/s 0.0 mm 19.5° 1009.2 hPa 4.7 m/s 10.3 mm 18.2° 1010.3 hPa 3.0 m/s 1.2 mm 19.1° 1008.1 hPa 3.0 m/s 0.0 mm 19.8° 1009.4 hPa 2.5 m/s
23:00 17.3° 1009.9 hPa 3.3 m/s 0.0 mm 17.1° 1009.6 hPa 2.9 m/s 10.3 mm 17.3° 1010.3 hPa 2.6 m/s 0.2 mm 17.9° 1008.8 hPa 5.1 m/s 0.0 mm 16.6° 1010.0 hPa 3.9 m/s
 05:56     21:32    Daglengte: 15:36 Woensdag 28 Jul
02:00 16.0° 1009.4 hPa 3.2 m/s 0.0 mm 14.8° 1008.3 hPa 2.7 m/s 11.0 mm 16.5° 1009.2 hPa 2.8 m/s 0.0 mm 16.1° 1009.8 hPa 3.2 m/s 0.0 mm 15.8° 1009.8 hPa 4.4 m/s
05:00 15.5° 1008.7 hPa 3.2 m/s 0.0 mm 14.4° 1007.9 hPa 3.5 m/s 11.0 mm 15.9° 1008.5 hPa 2.9 m/s 0.0 mm 14.6° 1009.7 hPa 2.6 m/s 0.0 mm 14.3° 1009.2 hPa 4.6 m/s
08:00 15.8° 1008.9 hPa 4.4 m/s 0.0 mm 16.2° 1008.3 hPa 5.0 m/s 11.0 mm 16.6° 1007.9 hPa 4.2 m/s 0.1 mm 15.5° 1009.7 hPa 3.7 m/s 0.0 mm 15.3° 1009.5 hPa 5.3 m/s
11:00 18.0° 1008.4 hPa 6.0 m/s 1.3 mm 19.0° 1008.1 hPa 6.5 m/s 11.0 mm 17.0° 1008.4 hPa 5.4 m/s 0.1 mm 18.9° 1009.2 hPa 7.3 m/s
14:00 19.2° 1008.4 hPa 6.0 m/s 2.3 mm 21.4° 1008.1 hPa 7.1 m/s 11.0 mm 19.2° 1008.3 hPa 5.9 m/s 0.5 mm 19.8° 1009.5 hPa 7.7 m/s
17:00 18.5° 1008.9 hPa 5.0 m/s 5.1 mm 18.2° 1008.1 hPa 4.9 m/s 12.4 mm 18.8° 1009.1 hPa 4.9 m/s 2.3 mm 20.1° 1009.3 hPa 7.3 m/s
20:00 17.8° 1008.7 hPa 4.6 m/s 4.8 mm 20.0° 1007.6 hPa 5.7 m/s 17.2 mm 17.3° 1008.8 hPa 4.0 m/s 2.3 mm 17.9° 1008.7 hPa 5.3 m/s
23:00 16.1° 1008.4 hPa 4.2 m/s 2.2 mm 17.0° 1007.7 hPa 4.3 m/s 18.2 mm 15.8° 1008.4 hPa 3.5 m/s 0.1 mm 15.0° 1008.5 hPa 5.2 m/s
 05:57     21:30    Daglengte: 15:33 Donderdag 29 Jul
02:00 15.4° 1007.8 hPa 4.9 m/s 5.0 mm 15.6° 1007.3 hPa 4.8 m/s 19.0 mm 14.8° 1008.2 hPa 4.8 m/s 0.0 mm 14.9° 1007.7 hPa 6.9 m/s
05:00 14.3° 1007.2 hPa 5.6 m/s 0.0 mm 14.4° 1006.9 hPa 5.4 m/s 19.0 mm 14.5° 1008.4 hPa 4.8 m/s 0.0 mm 12.8° 1008.1 hPa 6.7 m/s
08:00 14.7° 1007.7 hPa 6.2 m/s 6.9 mm 15.0° 1006.9 hPa 7.4 m/s 19.0 mm 14.9° 1009.4 hPa 5.1 m/s 0.0 mm 13.6° 1008.2 hPa 7.8 m/s
11:00 17.7° 1009.7 hPa 6.6 m/s 0.0 mm 17.8° 1007.0 hPa 8.9 m/s 19.0 mm 17.7° 1010.4 hPa 6.0 m/s 0.0 mm 15.8° 1009.7 hPa 8.4 m/s
14:00 20.0° 1009.7 hPa 7.0 m/s 0.0 mm 19.7° 1007.0 hPa 9.3 m/s 19.1 mm 20.1° 1010.4 hPa 6.4 m/s 0.0 mm 19.9° 1010.3 hPa 8.4 m/s
17:00 20.0° 1010.3 hPa 7.2 m/s 14.3 mm 20.0° 1010.3 hPa 7.2 m/s 14.3 mm
20:00 17.9° 1010.4 hPa 6.3 m/s 14.7 mm 17.9° 1010.4 hPa 6.3 m/s 14.7 mm
23:00 14.8° 1010.9 hPa 5.3 m/s 14.7 mm 14.8° 1010.9 hPa 5.3 m/s 14.7 mm
 05:59     21:28    Daglengte: 15:29 Vrijdag 30 Jul
02:00 13.4° 1011.0 hPa 4.8 m/s 14.7 mm 13.4° 1011.0 hPa 4.8 m/s 14.7 mm
05:00 11.8° 1010.8 hPa 4.2 m/s 14.7 mm 11.8° 1010.8 hPa 4.2 m/s 14.7 mm
08:00 13.5° 1011.2 hPa 4.9 m/s 14.7 mm 13.5° 1011.2 hPa 4.9 m/s 14.7 mm
11:00 18.5° 1011.0 hPa 5.1 m/s 14.7 mm 18.5° 1011.0 hPa 5.1 m/s 14.7 mm
14:00 21.1° 1010.1 hPa 4.6 m/s 14.7 mm 21.1° 1010.1 hPa 4.6 m/s 14.7 mm
17:00 21.7° 1009.3 hPa 2.8 m/s 14.7 mm 21.7° 1009.3 hPa 2.8 m/s 14.7 mm
20:00 20.1° 1008.0 hPa 1.0 m/s 14.7 mm 20.1° 1008.0 hPa 1.0 m/s 14.7 mm
23:00 16.9° 1007.6 hPa 1.4 m/s 15.2 mm 16.9° 1007.6 hPa 1.4 m/s 15.2 mm
 06:00     21:27    Daglengte: 15:27 Zaterdag 31 Jul
02:00 15.3° 1007.1 hPa 2.1 m/s 16.6 mm 15.3° 1007.1 hPa 2.1 m/s 16.6 mm
05:00 13.5° 1006.4 hPa 3.5 m/s 16.7 mm 13.5° 1006.4 hPa 3.5 m/s 16.7 mm
08:00 14.7° 1006.2 hPa 3.6 m/s 16.7 mm 14.7° 1006.2 hPa 3.6 m/s 16.7 mm
11:00 18.5° 1005.0 hPa 7.6 m/s 16.9 mm 18.5° 1005.0 hPa 7.6 m/s 16.9 mm
14:00 16.9° 1004.1 hPa 8.8 m/s 19.9 mm 16.9° 1004.1 hPa 8.8 m/s 19.9 mm
17:00 17.3° 1002.7 hPa 9.5 m/s 21.6 mm 17.3° 1002.7 hPa 9.5 m/s 21.6 mm
20:00 16.2° 1005.4 hPa 6.0 m/s 22.4 mm 16.2° 1005.4 hPa 6.0 m/s 22.4 mm
23:00 12.9° 1007.4 hPa 3.8 m/s 22.4 mm 12.9° 1007.4 hPa 3.8 m/s 22.4 mm
 06:02     21:25    Daglengte: 15:23 Zondag 01 Aug
02:00 11.9° 1007.4 hPa 3.0 m/s 22.4 mm 11.9° 1007.4 hPa 3.0 m/s 22.4 mm
05:00 12.2° 1006.9 hPa 2.5 m/s 22.4 mm 12.2° 1006.9 hPa 2.5 m/s 22.4 mm
08:00 13.3° 1006.8 hPa 3.1 m/s 23.4 mm 13.3° 1006.8 hPa 3.1 m/s 23.4 mm
11:00 14.9° 1006.8 hPa 3.4 m/s 24.1 mm 14.9° 1006.8 hPa 3.4 m/s 24.1 mm
14:00 15.3° 1007.3 hPa 2.6 m/s 24.9 mm 15.3° 1007.3 hPa 2.6 m/s 24.9 mm
17:00 16.6° 1008.2 hPa 5.2 m/s 28.1 mm 16.6° 1008.2 hPa 5.2 m/s 28.1 mm
20:00 14.8° 1009.4 hPa 4.0 m/s 30.4 mm 14.8° 1009.4 hPa 4.0 m/s 30.4 mm
23:00 11.5° 1011.6 hPa 2.9 m/s 30.5 mm 11.5° 1011.6 hPa 2.9 m/s 30.5 mm
 06:03     21:23    Daglengte: 15:20 Maandag 02 Aug
02:00 10.2° 1012.9 hPa 3.1 m/s 30.5 mm 10.2° 1012.9 hPa 3.1 m/s 30.5 mm
05:00 9.6° 1013.3 hPa 3.0 m/s 30.5 mm 9.6° 1013.3 hPa 3.0 m/s 30.5 mm
08:00 12.0° 1014.4 hPa 3.3 m/s 30.5 mm 12.0° 1014.4 hPa 3.3 m/s 30.5 mm
11:00 15.4° 1015.5 hPa 4.8 m/s 31.1 mm 15.4° 1015.5 hPa 4.8 m/s 31.1 mm
14:00 18.7° 1015.4 hPa 4.3 m/s 31.4 mm 18.7° 1015.4 hPa 4.3 m/s 31.4 mm
20:00 17.4° 1015.3 hPa 1.4 m/s 31.4 mm 17.4° 1015.3 hPa 1.4 m/s 31.4 mm
 06:05     21:22    Daglengte: 15:17 Dinsdag 03 Aug
02:00 12.3° 1015.6 hPa 1.9 m/s 31.4 mm 12.3° 1015.6 hPa 1.9 m/s 31.4 mm
08:00 13.6° 1015.6 hPa 3.2 m/s 31.4 mm 13.6° 1015.6 hPa 3.2 m/s 31.4 mm
14:00 21.1° 1015.1 hPa 5.7 m/s 31.5 mm 21.1° 1015.1 hPa 5.7 m/s 31.5 mm
20:00 18.8° 1014.1 hPa 3.6 m/s 31.5 mm 18.8° 1014.1 hPa 3.6 m/s 31.5 mm
 06:06     21:20    Daglengte: 15:14 Woensdag 04 Aug
02:00 14.7° 1013.3 hPa 4.6 m/s 31.5 mm 14.7° 1013.3 hPa 4.6 m/s 31.5 mm
08:00 16.0° 1011.5 hPa 5.3 m/s 31.6 mm 16.0° 1011.5 hPa 5.3 m/s 31.6 mm
14:00 21.7° 1009.6 hPa 8.1 m/s 31.7 mm 21.7° 1009.6 hPa 8.1 m/s 31.7 mm
20:00 17.9° 1008.8 hPa 5.3 m/s 34.1 mm 17.9° 1008.8 hPa 5.3 m/s 34.1 mm
 06:08     21:18    Daglengte: 15:10 Donderdag 05 Aug
02:00 13.7° 1009.3 hPa 4.8 m/s 34.2 mm 13.7° 1009.3 hPa 4.8 m/s 34.2 mm
08:00 14.1° 1008.4 hPa 4.8 m/s 34.2 mm 14.1° 1008.4 hPa 4.8 m/s 34.2 mm
14:00 19.8° 1010.2 hPa 3.4 m/s 1.2 mm
20:00 18.0° 1009.0 hPa 1.7 m/s 2.3 mm
 06:09     21:16    Daglengte: 15:07 Vrijdag 06 Aug
02:00 14.1° 1008.5 hPa 1.9 m/s 0.8 mm
08:00 14.4° 1007.8 hPa 2.7 m/s 0.6 mm
14:00 19.6° 1007.9 hPa 3.5 m/s 1.6 mm
20:00 17.6° 1007.3 hPa 2.0 m/s 2.2 mm
 06:11     21:14    Daglengte: 15:03 Zaterdag 07 Aug
02:00 13.4° 1007.6 hPa 2.7 m/s 0.9 mm
08:00 14.1° 1007.5 hPa 3.4 m/s 0.6 mm
14:00 18.9° 1007.9 hPa 5.0 m/s 2.0 mm
20:00 17.0° 1008.5 hPa 3.7 m/s 2.8 mm
 06:12     21:13    Daglengte: 15:01 Zondag 08 Aug
02:00 13.3° 1009.7 hPa 3.4 m/s 0.3 mm
08:00 14.0° 1009.7 hPa 4.0 m/s 1.1 mm
14:00 18.6° 1010.6 hPa 5.5 m/s 2.2 mm
20:00 17.0° 1011.4 hPa 3.3 m/s 1.6 mm
 06:14     21:11    Daglengte: 14:57 Maandag 09 Aug
02:00 13.5° 1012.5 hPa 3.3 m/s 0.5 mm
08:00 13.9° 1012.9 hPa 3.9 m/s 0.4 mm
14:00 19.1° 1013.8 hPa 5.1 m/s 1.4 mm
20:00 17.3° 1014.3 hPa 2.7 m/s 0.2 mm
 06:16     21:09    Daglengte: 14:53 Dinsdag 10 Aug
02:00 13.3° 1015.3 hPa 2.2 m/s 0.7 mm
08:00 13.8° 1015.3 hPa 3.1 m/s 0.6 mm
14:00 20.1° 1016.0 hPa 4.1 m/s 1.1 mm
FMI Hirlam - 7.5 km EWN WRFDA - 12 km DWD ICON - 7 km GFS - 25 km Basiskaart






























































Updatetijd (Europe/Amsterdam) Resolutie Lengte Stap
FMI Hirlam 14:00, 20:00, 02:00, 08:00 7.5 km 49h 1h
EWN WRFDA 10:30, 16:30, 22:30, 04:30 12 km 73h 1h
DWD ICON 11:45, 17:45, 23:45, 05:45 7 km 75h 1h
GFS 14:15, 20:15, 02:15, 08:15 25 km 237h 3h
30+ mm
25-30 mm
20-25 mm
15-20 mm
10-15 mm
6-10 mm
4-6 mm
2-4 mm
1-2 mm
0.5-1 mm
0.2-0.5 mm
0.1-0.2 mm
30+ mm
25-30 mm
20-25 mm
15-20 mm
10-15 mm
6-10 mm
4-6 mm
2-4 mm
1-2 mm
0.5-1 mm
0.2-0.5 mm
0.1-0.2 mm
Sneeuwval
Natte sneeuw
Hagel
Vorst
30+ mm
25-30 mm
20-25 mm
15-20 mm
10-15 mm
6-10 mm
4-6 mm
2-4 mm
1-2 mm
0.5-1 mm
0.2-0.5 mm
0.1-0.2 mm
Sneeuwval
Natte sneeuw
Hagel
Vorst
Onweer
50 mm
40 mm
30 mm
26 mm
22 mm
18 mm
14 mm
10 mm
9 mm
8 mm
7 mm
6 mm
5 mm
4.5 mm
4 mm
3.5 mm
3 mm
2.5 mm
2 mm
1.5 mm
1 mm
0.8 mm
0.6 mm
0.4 mm
0.2 mm
0.05 mm
35°
30°
25°
20°
15°
10°
-5°
-10°
-15°
-20°
-25°
-30°
-35°
33> m/s